UAE922 HECA-OMDB

Flight info

Callsign UAE922
Flight time 3h 12m
Altitude 39000
Route OBTAV L315 HGD M872 PMA Y214 RAPMA/N0518F290 Y214 RIBOT DCT ELUDA G783 ASPED Q308 RUDAT/N0473F240 M762 MIVEK P574 IMPED
Aircraft B77W/H-SDE1E2E3FGHIJ2J3J4J5M1RWXY/LB1D1

Departure

Time 2026-05-06 10:26
Airport Cairo International Airport (HECA)

Arrival

Time 2026-05-06 13:38
Airport Dubai International Airport (OMDB)
Time Latitude Longitude Altitude Speed Heading
2026-05-06 10:14 30.11052 31.40316 379 ft 0 kts 17°
2026-05-06 10:17 30.11043 31.40313 379 ft 2 kts 17°
2026-05-06 10:17 30.11028 31.40307 379 ft 2 kts 17°
2026-05-06 10:17 30.11012 31.40302 379 ft 2 kts 17°
2026-05-06 10:18 30.10997 31.40296 379 ft 2 kts 17°
2026-05-06 10:18 30.10981 31.40291 379 ft 2 kts 32°
2026-05-06 10:18 30.10972 31.40277 379 ft 2 kts 103°
2026-05-06 10:18 30.10974 31.40268 379 ft 0 kts 105°
2026-05-06 10:19 30.10970 31.40283 379 ft 7 kts 105°
2026-05-06 10:19 30.10942 31.40395 379 ft 22 kts 107°
2026-05-06 10:19 30.10939 31.40559 379 ft 16 kts 55°
2026-05-06 10:19 30.11039 31.40694 379 ft 29 kts 48°
2026-05-06 10:20 30.11174 31.40875 379 ft 30 kts 49°
2026-05-06 10:20 30.11310 31.41055 379 ft 30 kts 49°
2026-05-06 10:20 30.11432 31.41207 379 ft 24 kts 35°
2026-05-06 10:20 30.11590 31.41204 379 ft 24 kts 342°
2026-05-06 10:21 30.11747 31.41147 379 ft 24 kts 342°
2026-05-06 10:21 30.11904 31.41090 379 ft 24 kts 343°
2026-05-06 10:21 30.12061 31.41033 379 ft 26 kts 341°
2026-05-06 10:21 30.12249 31.40962 379 ft 29 kts 343°
2026-05-06 10:22 30.12494 31.40876 379 ft 44 kts 343°
2026-05-06 10:22 30.12782 31.40771 379 ft 42 kts 342°
2026-05-06 10:22 30.13045 31.40676 379 ft 30 kts 342°
2026-05-06 10:22 30.13195 31.40523 379 ft 31 kts 297°
2026-05-06 10:23 30.13269 31.40233 379 ft 40 kts 282°
2026-05-06 10:23 30.13198 31.39994 379 ft 33 kts 229°
2026-05-06 10:23 30.13028 31.39766 379 ft 44 kts 229°
2026-05-06 10:23 30.12757 31.39402 379 ft 69 kts 229°
2026-05-06 10:24 30.12507 31.39066 379 ft 51 kts 229°
2026-05-06 10:24 30.12281 31.38763 379 ft 48 kts 229°
2026-05-06 10:24 30.12072 31.38485 379 ft 45 kts 229°
2026-05-06 10:24 30.11902 31.38257 379 ft 28 kts 229°
2026-05-06 10:25 30.11902 31.38122 379 ft 19 kts 315°
2026-05-06 10:25 30.11939 31.38082 379 ft 6 kts 320°
2026-05-06 10:25 30.12035 31.38116 380 ft 22 kts 48°
2026-05-06 10:25 30.12091 31.38190 382 ft 43 kts 49°
2026-05-06 10:26 30.12569 31.38830 379 ft 166 kts 49°
2026-05-06 10:26 30.13466 31.40014 884 ft 232 kts 48°
2026-05-06 10:26 30.14604 31.41530 2322 ft 255 kts 49°
2026-05-06 10:26 30.15633 31.43060 4413 ft 229 kts 59°
2026-05-06 10:27 30.16018 31.44866 5311 ft 246 kts 94°
2026-05-06 10:27 30.15460 31.46831 5916 ft 267 kts 120°
2026-05-06 10:27 30.14401 31.48642 6813 ft 276 kts 124°
2026-05-06 10:27 30.13642 31.49835 7442 ft 279 kts 130°
2026-05-06 10:28 30.12164 31.51347 8331 ft 289 kts 143°
2026-05-06 10:28 30.09916 31.53073 9722 ft 295 kts 147°
2026-05-06 10:28 30.08738 31.53934 10382 ft 300 kts 148°
2026-05-06 10:28 30.06914 31.55269 10987 ft 322 kts 148°
2026-05-06 10:29 30.04926 31.56741 11239 ft 355 kts 148°
2026-05-06 10:29 30.02755 31.58368 11504 ft 386 kts 148°
2026-05-06 10:29 30.00500 31.60085 12209 ft 400 kts 148°
2026-05-06 10:29 29.98157 31.61888 13085 ft 408 kts 148°
2026-05-06 10:30 29.95757 31.63748 14113 ft 413 kts 148°
2026-05-06 10:30 29.93392 31.65591 15082 ft 418 kts 148°
2026-05-06 10:30 29.90967 31.67483 16003 ft 424 kts 148°
2026-05-06 10:30 29.88499 31.69409 16910 ft 430 kts 148°
2026-05-06 10:31 29.86011 31.71352 17808 ft 435 kts 148°
2026-05-06 10:31 29.83485 31.73324 18646 ft 441 kts 148°
2026-05-06 10:31 29.80926 31.75319 19484 ft 447 kts 148°
2026-05-06 10:31 29.78335 31.77338 20369 ft 449 kts 148°
2026-05-06 10:32 29.75740 31.79358 21264 ft 452 kts 148°
2026-05-06 10:32 29.73126 31.81392 22053 ft 456 kts 148°
2026-05-06 10:32 29.70481 31.83448 22765 ft 461 kts 148°
2026-05-06 10:32 29.67805 31.85526 23430 ft 467 kts 148°
2026-05-06 10:33 29.65097 31.87628 24131 ft 470 kts 148°
2026-05-06 10:33 29.62374 31.89739 24818 ft 474 kts 148°
2026-05-06 10:33 29.59627 31.91868 25460 ft 478 kts 149°
2026-05-06 10:33 29.56848 31.94020 26034 ft 484 kts 149°
2026-05-06 10:34 29.54041 31.96194 26605 ft 489 kts 149°
2026-05-06 10:34 29.51213 31.98383 27167 ft 492 kts 149°
2026-05-06 10:34 29.48399 32.00559 27707 ft 496 kts 149°
2026-05-06 10:34 29.45489 32.02806 28218 ft 500 kts 149°
2026-05-06 10:35 29.42593 32.05040 28715 ft 504 kts 150°
2026-05-06 10:35 29.39668 32.07295 29163 ft 508 kts 150°
2026-05-06 10:35 29.36759 32.09538 29607 ft 511 kts 150°
2026-05-06 10:35 29.33803 32.11814 30041 ft 514 kts 150°
2026-05-06 10:36 29.30830 32.14103 30453 ft 515 kts 150°
2026-05-06 10:36 29.27858 32.16391 30976 ft 514 kts 150°
2026-05-06 10:36 29.24897 32.18670 31549 ft 511 kts 150°
2026-05-06 10:36 29.21952 32.20934 32077 ft 509 kts 150°
2026-05-06 10:37 29.19008 32.23196 32578 ft 508 kts 150°
2026-05-06 10:37 29.16071 32.25450 33059 ft 506 kts 150°
2026-05-06 10:37 29.13152 32.27688 33537 ft 505 kts 151°
2026-05-06 10:37 29.10236 32.29922 33969 ft 504 kts 151°
2026-05-06 10:38 29.07325 32.32150 34411 ft 503 kts 151°
2026-05-06 10:38 29.04421 32.34372 34819 ft 502 kts 151°
2026-05-06 10:38 29.01516 32.36592 35202 ft 502 kts 151°
2026-05-06 10:38 28.98608 32.38812 35538 ft 502 kts 151°
2026-05-06 10:39 28.95705 32.41028 35853 ft 502 kts 152°
2026-05-06 10:39 28.92795 32.43248 36234 ft 501 kts 152°
2026-05-06 10:39 28.89898 32.45455 36571 ft 501 kts 152°
2026-05-06 10:39 28.86999 32.47663 36849 ft 501 kts 152°
2026-05-06 10:40 28.84091 32.49877 37024 ft 503 kts 152°
2026-05-06 10:40 28.81177 32.52092 37059 ft 501 kts 152°
2026-05-06 10:40 28.75471 32.56438 37057 ft 492 kts 152°
2026-05-06 10:41 28.69783 32.60755 37062 ft 490 kts 152°
2026-05-06 10:41 28.64099 32.65060 37058 ft 490 kts 152°
2026-05-06 10:42 28.58416 32.69359 37056 ft 491 kts 152°
2026-05-06 10:42 28.52717 32.73666 37049 ft 492 kts 152°
2026-05-06 10:43 28.47005 32.77979 37046 ft 492 kts 152°
2026-05-06 10:44 28.38430 32.84440 37042 ft 493 kts 152°
2026-05-06 10:44 28.32706 32.88748 37027 ft 493 kts 152°
2026-05-06 10:45 28.27022 32.93021 37029 ft 493 kts 152°
2026-05-06 10:45 28.21307 32.97308 37018 ft 493 kts 152°
2026-05-06 10:46 28.15594 33.01590 37009 ft 492 kts 153°
2026-05-06 10:46 28.09889 33.05858 37015 ft 490 kts 153°
2026-05-06 10:47 28.04202 33.10111 37010 ft 488 kts 153°
2026-05-06 10:47 27.98581 33.14419 36998 ft 488 kts 151°
2026-05-06 10:48 27.93096 33.18936 36996 ft 486 kts 150°
2026-05-06 10:48 27.87637 33.23440 37003 ft 485 kts 151°
2026-05-06 10:49 27.82175 33.27886 37009 ft 484 kts 151°
2026-05-06 10:49 27.76717 33.32303 37011 ft 485 kts 151°
2026-05-06 10:50 27.71221 33.36745 37012 ft 485 kts 151°
2026-05-06 10:50 27.65722 33.41184 37005 ft 486 kts 151°
2026-05-06 10:51 27.60209 33.45633 37010 ft 486 kts 151°
2026-05-06 10:51 27.54728 33.50047 37008 ft 487 kts 151°
2026-05-06 10:52 27.49212 33.54488 37022 ft 487 kts 151°
2026-05-06 10:52 27.43693 33.58914 37022 ft 487 kts 152°
2026-05-06 10:53 27.38168 33.63339 37023 ft 487 kts 152°
2026-05-06 10:53 27.32640 33.67760 37020 ft 487 kts 152°
2026-05-06 10:54 27.27109 33.72179 37018 ft 487 kts 152°
2026-05-06 10:54 27.21586 33.76620 37019 ft 490 kts 149°
2026-05-06 10:54 27.19073 33.79271 37011 ft 502 kts 137°
2026-05-06 10:55 27.16961 33.82433 37028 ft 511 kts 128°
2026-05-06 10:55 27.15299 33.86003 37007 ft 520 kts 117°
2026-05-06 10:55 27.13994 33.89735 37031 ft 521 kts 116°
2026-05-06 10:56 27.11416 33.97418 37027 ft 521 kts 116°
2026-05-06 10:56 27.08790 34.04947 37028 ft 521 kts 118°
2026-05-06 10:57 27.06081 34.12490 37028 ft 520 kts 118°
2026-05-06 10:57 27.03370 34.20027 37028 ft 520 kts 118°
2026-05-06 10:58 27.00670 34.27563 37027 ft 520 kts 118°
2026-05-06 10:58 26.97974 34.35105 37027 ft 520 kts 118°
2026-05-06 10:59 26.95269 34.42649 37026 ft 521 kts 118°
2026-05-06 10:59 26.92558 34.50185 37014 ft 521 kts 118°
2026-05-06 11:00 26.89844 34.57711 37007 ft 521 kts 118°
2026-05-06 11:00 26.87141 34.65196 37006 ft 521 kts 118°
2026-05-06 11:01 26.84411 34.72737 36998 ft 521 kts 118°
2026-05-06 11:01 26.81683 34.80259 36999 ft 521 kts 119°
2026-05-06 11:02 26.78947 34.87785 36996 ft 522 kts 119°
2026-05-06 11:02 26.76211 34.95303 36990 ft 522 kts 119°
2026-05-06 11:03 26.73461 35.02833 36990 ft 522 kts 119°
2026-05-06 11:03 26.70702 35.10355 36992 ft 522 kts 119°
2026-05-06 11:04 26.67938 35.17878 36990 ft 523 kts 119°
2026-05-06 11:04 26.65165 35.25408 36991 ft 523 kts 119°
2026-05-06 11:05 26.62408 35.32884 36990 ft 523 kts 120°
2026-05-06 11:05 26.59622 35.40420 36974 ft 524 kts 120°
2026-05-06 11:06 26.56833 35.47951 36973 ft 525 kts 120°
2026-05-06 11:06 26.54487 35.54190 36972 ft 524 kts 120°
2026-05-06 11:07 26.51613 35.61687 36972 ft 524 kts 121°
2026-05-06 11:07 26.48729 35.69181 36963 ft 525 kts 121°
2026-05-06 11:08 26.45854 35.76664 36959 ft 525 kts 121°
2026-05-06 11:08 26.42972 35.84169 36964 ft 526 kts 121°
2026-05-06 11:09 26.40086 35.91666 36955 ft 527 kts 121°
2026-05-06 11:09 26.37185 35.99186 36954 ft 527 kts 121°
2026-05-06 11:10 26.34278 36.06706 36950 ft 527 kts 121°
2026-05-06 11:10 26.31370 36.14216 36943 ft 527 kts 121°
2026-05-06 11:11 26.28474 36.21680 36945 ft 527 kts 121°
2026-05-06 11:11 26.25553 36.29193 36944 ft 527 kts 121°
2026-05-06 11:12 26.22632 36.36690 36944 ft 527 kts 121°
2026-05-06 11:12 26.19710 36.44175 36946 ft 527 kts 121°
2026-05-06 11:13 26.16638 36.51553 36935 ft 521 kts 126°
2026-05-06 11:13 26.13153 36.58627 36940 ft 520 kts 127°
2026-05-06 11:14 26.09662 36.65613 36943 ft 520 kts 127°
2026-05-06 11:14 26.06167 36.72663 36949 ft 521 kts 127°
2026-05-06 11:15 26.02681 36.79729 36944 ft 521 kts 127°
2026-05-06 11:15 25.99194 36.86790 36945 ft 521 kts 127°
2026-05-06 11:16 25.95697 36.93854 36943 ft 521 kts 127°
2026-05-06 11:16 25.92197 37.00907 36947 ft 521 kts 127°
2026-05-06 11:17 25.88697 37.07953 36943 ft 521 kts 127°
2026-05-06 11:17 25.85194 37.14993 36947 ft 521 kts 127°
2026-05-06 11:18 25.81681 37.22040 36946 ft 521 kts 127°
2026-05-06 11:18 25.78198 37.29032 36941 ft 521 kts 127°
2026-05-06 11:19 25.74693 37.36081 36944 ft 521 kts 127°
2026-05-06 11:19 25.71181 37.43132 36947 ft 521 kts 127°
2026-05-06 11:20 25.67665 37.50175 36939 ft 522 kts 127°
2026-05-06 11:20 25.64150 37.57207 36950 ft 521 kts 127°
2026-05-06 11:21 25.60643 37.64203 36947 ft 521 kts 127°
2026-05-06 11:21 25.57116 37.71229 36929 ft 522 kts 127°
2026-05-06 11:22 25.53576 37.78271 36932 ft 522 kts 127°
2026-05-06 11:22 25.50041 37.85298 36931 ft 522 kts 127°
2026-05-06 11:23 25.46502 37.92316 36934 ft 522 kts 127°
2026-05-06 11:23 25.42963 37.99329 36903 ft 522 kts 127°
2026-05-06 11:24 25.39423 38.06333 36923 ft 521 kts 127°
2026-05-06 11:24 25.35878 38.13331 36914 ft 521 kts 127°
2026-05-06 11:25 25.32333 38.20318 36904 ft 521 kts 127°
2026-05-06 11:25 25.28805 38.27263 36909 ft 521 kts 127°
2026-05-06 11:26 25.25253 38.34246 36902 ft 521 kts 127°
2026-05-06 11:26 25.21694 38.41228 36891 ft 521 kts 127°
2026-05-06 11:27 25.18135 38.48198 36890 ft 520 kts 127°
2026-05-06 11:27 25.14585 38.55153 36897 ft 520 kts 127°
2026-05-06 11:28 25.11039 38.62097 36894 ft 519 kts 128°
2026-05-06 11:28 25.07486 38.69040 36888 ft 518 kts 128°
2026-05-06 11:29 25.03961 38.75914 36892 ft 517 kts 128°
2026-05-06 11:29 25.00412 38.82820 36902 ft 517 kts 128°
2026-05-06 11:30 24.96858 38.89730 36902 ft 517 kts 128°
2026-05-06 11:30 24.93300 38.96620 36902 ft 517 kts 128°
2026-05-06 11:31 24.89731 39.03494 36909 ft 516 kts 128°
2026-05-06 11:31 24.86155 39.10361 36903 ft 516 kts 128°
2026-05-06 11:32 24.82586 39.17215 36928 ft 516 kts 128°
2026-05-06 11:32 24.79019 39.24066 36933 ft 517 kts 128°
2026-05-06 11:33 24.75440 39.30939 36928 ft 517 kts 128°
2026-05-06 11:33 24.71877 39.37762 36936 ft 517 kts 128°
2026-05-06 11:34 24.68267 39.44663 36933 ft 517 kts 128°
2026-05-06 11:34 24.64703 39.51464 36944 ft 516 kts 128°
2026-05-06 11:35 24.61091 39.58349 36932 ft 516 kts 128°
2026-05-06 11:35 24.57512 39.65180 36939 ft 517 kts 126°
2026-05-06 11:36 24.54812 39.72619 36941 ft 532 kts 112°
2026-05-06 11:36 24.53555 39.80708 36942 ft 542 kts 101°
2026-05-06 11:37 24.52865 39.88960 36929 ft 542 kts 101°
2026-05-06 11:37 24.52164 39.97147 36936 ft 541 kts 101°
2026-05-06 11:38 24.51390 40.05372 36936 ft 541 kts 102°
2026-05-06 11:38 24.50585 40.13589 36933 ft 540 kts 102°
2026-05-06 11:39 24.49776 40.21793 36935 ft 540 kts 102°
2026-05-06 11:39 24.48972 40.29985 36936 ft 539 kts 102°
2026-05-06 11:40 24.48160 40.38196 37274 ft 542 kts 102°
2026-05-06 11:40 24.47752 40.42313 37626 ft 541 kts 102°
2026-05-06 11:40 24.47350 40.46369 37973 ft 540 kts 102°
2026-05-06 11:40 24.46942 40.50476 38295 ft 539 kts 102°
2026-05-06 11:41 24.46533 40.54572 38550 ft 540 kts 102°
2026-05-06 11:41 24.46122 40.58672 38789 ft 541 kts 102°
2026-05-06 11:41 24.45708 40.62786 38886 ft 544 kts 102°
2026-05-06 11:42 24.44874 40.71051 38929 ft 544 kts 102°
2026-05-06 11:42 24.44039 40.79273 38928 ft 539 kts 102°
2026-05-06 11:43 24.43211 40.87376 38931 ft 536 kts 102°
2026-05-06 11:43 24.42374 40.95497 38938 ft 535 kts 102°
2026-05-06 11:44 24.41116 41.07662 38946 ft 535 kts 102°
2026-05-06 11:44 24.40271 41.15791 38980 ft 536 kts 102°
2026-05-06 11:45 24.39415 41.23916 38983 ft 537 kts 102°
2026-05-06 11:45 24.38695 41.30691 38995 ft 537 kts 102°
2026-05-06 11:46 24.37825 41.38841 38998 ft 538 kts 102°
2026-05-06 11:46 24.36953 41.46991 38996 ft 538 kts 102°
2026-05-06 11:47 24.36075 41.55143 38995 ft 537 kts 102°
2026-05-06 11:47 24.35194 41.63281 38997 ft 537 kts 102°
2026-05-06 11:48 24.34313 41.71365 38995 ft 536 kts 102°
2026-05-06 11:48 24.33425 41.79465 38989 ft 534 kts 102°
2026-05-06 11:49 24.31929 41.87364 38992 ft 524 kts 112°
2026-05-06 11:49 24.29866 41.95018 38991 ft 522 kts 112°
2026-05-06 11:50 24.27799 42.02644 38987 ft 522 kts 112°
2026-05-06 11:50 24.25764 42.10286 38998 ft 522 kts 112°
2026-05-06 11:51 24.23759 42.17874 38999 ft 522 kts 112°
2026-05-06 11:51 24.21723 42.25570 39002 ft 522 kts 112°
2026-05-06 11:52 24.19704 42.33170 39002 ft 523 kts 112°
2026-05-06 11:52 24.17662 42.40829 38999 ft 524 kts 112°
2026-05-06 11:53 24.15610 42.48513 39001 ft 525 kts 112°
2026-05-06 11:53 24.13555 42.56195 38999 ft 526 kts 112°
2026-05-06 11:54 24.11496 42.63871 38995 ft 526 kts 112°
2026-05-06 11:54 24.09429 42.71564 38996 ft 527 kts 112°
2026-05-06 11:55 24.07351 42.79270 38986 ft 527 kts 112°
2026-05-06 11:55 24.05291 42.86905 38988 ft 526 kts 112°
2026-05-06 11:56 24.03216 42.94591 38987 ft 525 kts 112°
2026-05-06 11:56 24.01146 43.02261 38990 ft 525 kts 112°
2026-05-06 11:57 23.99074 43.09923 38988 ft 525 kts 112°
2026-05-06 11:57 23.96998 43.17572 38993 ft 524 kts 111°
2026-05-06 11:58 23.94921 43.25202 38984 ft 523 kts 111°
2026-05-06 11:58 23.92842 43.32821 38996 ft 522 kts 111°
2026-05-06 11:59 23.90762 43.40427 38991 ft 521 kts 111°
2026-05-06 11:59 23.88698 43.47970 38987 ft 520 kts 111°
2026-05-06 12:00 23.86604 43.55595 38988 ft 520 kts 111°
2026-05-06 12:00 23.84531 43.63124 38994 ft 520 kts 111°
2026-05-06 12:01 23.82443 43.70694 38987 ft 521 kts 111°
2026-05-06 12:01 23.80349 43.78269 38987 ft 521 kts 111°
2026-05-06 12:02 23.78259 43.85862 38998 ft 523 kts 110°
2026-05-06 12:02 23.76917 43.93732 38996 ft 531 kts 98°
2026-05-06 12:03 23.76373 44.01779 38985 ft 532 kts 97°
2026-05-06 12:03 23.75847 44.09830 38978 ft 530 kts 98°
2026-05-06 12:04 23.75267 44.17842 38978 ft 528 kts 98°
2026-05-06 12:04 23.74658 44.25839 38980 ft 527 kts 98°
2026-05-06 12:05 23.74048 44.33750 38980 ft 526 kts 98°
2026-05-06 12:05 23.73438 44.41710 38984 ft 525 kts 98°
2026-05-06 12:06 23.72822 44.49670 38978 ft 525 kts 98°
2026-05-06 12:06 23.72202 44.57632 38986 ft 525 kts 98°
2026-05-06 12:07 23.71579 44.65573 38982 ft 526 kts 98°
2026-05-06 12:07 23.70953 44.73508 38977 ft 526 kts 98°
2026-05-06 12:08 23.70317 44.81488 38973 ft 526 kts 98°
2026-05-06 12:08 23.69682 44.89444 38975 ft 526 kts 98°
2026-05-06 12:09 23.69044 44.97398 38971 ft 526 kts 98°
2026-05-06 12:09 23.68399 45.05352 38973 ft 526 kts 98°
2026-05-06 12:10 23.67747 45.13278 38963 ft 527 kts 98°
2026-05-06 12:10 23.67085 45.21242 38962 ft 527 kts 98°
2026-05-06 12:11 23.66432 45.29169 38962 ft 527 kts 98°
2026-05-06 12:11 23.65772 45.37161 38960 ft 528 kts 98°
2026-05-06 12:12 23.65109 45.45144 38956 ft 529 kts 98°
2026-05-06 12:12 23.64439 45.53154 38949 ft 529 kts 98°
2026-05-06 12:13 23.63765 45.61146 38954 ft 530 kts 98°
2026-05-06 12:13 23.63091 45.69105 38954 ft 530 kts 98°
2026-05-06 12:14 23.62408 45.77120 38944 ft 531 kts 98°
2026-05-06 12:14 23.61723 45.85141 38950 ft 531 kts 98°
2026-05-06 12:15 23.61030 45.93162 38943 ft 531 kts 98°
2026-05-06 12:15 23.60335 46.01188 38943 ft 532 kts 98°
2026-05-06 12:16 23.59635 46.09217 38947 ft 532 kts 98°
2026-05-06 12:16 23.58932 46.17242 38949 ft 531 kts 98°
2026-05-06 12:17 23.58223 46.25277 38936 ft 531 kts 98°
2026-05-06 12:17 23.57511 46.33292 38912 ft 531 kts 98°
2026-05-06 12:18 23.56797 46.41302 38881 ft 530 kts 98°
2026-05-06 12:18 23.56085 46.49244 38877 ft 528 kts 98°
2026-05-06 12:19 23.55362 46.57208 38881 ft 527 kts 98°
2026-05-06 12:19 23.54629 46.65163 38873 ft 526 kts 99°
2026-05-06 12:20 23.53893 46.73094 38875 ft 525 kts 99°
2026-05-06 12:20 23.53280 46.79675 38877 ft 524 kts 99°
2026-05-06 12:21 23.52542 46.87584 38883 ft 524 kts 99°
2026-05-06 12:21 23.51799 46.95484 38877 ft 524 kts 99°
2026-05-06 12:22 23.51052 47.03380 38876 ft 524 kts 99°
2026-05-06 12:22 23.50303 47.11278 38869 ft 524 kts 99°
2026-05-06 12:23 23.49548 47.19177 38873 ft 523 kts 99°
2026-05-06 12:23 23.48791 47.27066 38867 ft 523 kts 99°
2026-05-06 12:24 23.48035 47.34891 38873 ft 523 kts 99°
2026-05-06 12:24 23.47270 47.42774 38873 ft 523 kts 99°
2026-05-06 12:25 23.46502 47.50655 38871 ft 523 kts 99°
2026-05-06 12:25 23.45732 47.58541 38869 ft 523 kts 99°
2026-05-06 12:26 23.44963 47.66428 38853 ft 524 kts 99°
2026-05-06 12:26 23.44191 47.74316 38853 ft 523 kts 99°
2026-05-06 12:27 23.43415 47.82198 38851 ft 523 kts 99°
2026-05-06 12:27 23.42635 47.90075 38851 ft 523 kts 99°
2026-05-06 12:28 23.41855 47.97911 38852 ft 523 kts 99°
2026-05-06 12:28 23.41066 48.05791 38853 ft 523 kts 99°
2026-05-06 12:29 23.40274 48.13658 38853 ft 523 kts 99°
2026-05-06 12:29 23.39479 48.21528 38849 ft 522 kts 99°
2026-05-06 12:30 23.38681 48.29388 38853 ft 522 kts 99°
2026-05-06 12:30 23.38011 48.37269 38857 ft 522 kts 95°
2026-05-06 12:31 23.37704 48.45177 38854 ft 523 kts 94°
2026-05-06 12:31 23.37434 48.53075 38852 ft 522 kts 95°
2026-05-06 12:32 23.37131 48.60920 38852 ft 522 kts 95°
2026-05-06 12:32 23.36805 48.68821 38854 ft 521 kts 95°
2026-05-06 12:33 23.36475 48.76698 38850 ft 521 kts 95°
2026-05-06 12:33 23.36143 48.84580 38856 ft 521 kts 95°
2026-05-06 12:34 23.35807 48.92458 38846 ft 521 kts 95°
2026-05-06 12:34 23.35468 49.00320 38839 ft 520 kts 95°
2026-05-06 12:35 23.35127 49.08185 38843 ft 520 kts 95°
2026-05-06 12:35 23.34777 49.16039 38842 ft 519 kts 95°
2026-05-06 12:36 23.34427 49.23841 38839 ft 519 kts 95°
2026-05-06 12:36 23.34073 49.31685 38842 ft 519 kts 95°
2026-05-06 12:37 23.33709 49.39532 38842 ft 519 kts 95°
2026-05-06 12:37 23.33344 49.47394 38843 ft 519 kts 95°
2026-05-06 12:38 23.32977 49.55244 38818 ft 520 kts 95°
2026-05-06 12:38 23.32606 49.63106 38813 ft 520 kts 95°
2026-05-06 12:39 23.32230 49.70949 38815 ft 519 kts 95°
2026-05-06 12:39 23.31850 49.78769 38816 ft 519 kts 95°
2026-05-06 12:40 23.31467 49.86621 38814 ft 519 kts 95°
2026-05-06 12:40 23.31077 49.94483 38817 ft 519 kts 95°
2026-05-06 12:41 23.30685 50.02335 38814 ft 519 kts 95°
2026-05-06 12:41 23.30290 50.10185 38814 ft 519 kts 95°
2026-05-06 12:42 23.29892 50.18022 38815 ft 519 kts 95°
2026-05-06 12:42 23.29488 50.25865 38808 ft 519 kts 95°
2026-05-06 12:43 23.29085 50.33658 38805 ft 518 kts 95°
2026-05-06 12:43 23.28675 50.41485 38809 ft 518 kts 95°
2026-05-06 12:44 23.28262 50.49313 38803 ft 517 kts 95°
2026-05-06 12:44 23.27846 50.57110 38803 ft 516 kts 95°
2026-05-06 12:45 23.27425 50.64906 38805 ft 516 kts 95°
2026-05-06 12:46 23.26787 50.76585 38805 ft 515 kts 95°
2026-05-06 12:46 23.26359 50.84364 38807 ft 515 kts 95°
2026-05-06 12:47 23.25930 50.92098 38804 ft 514 kts 95°
2026-05-06 12:47 23.25493 50.99872 38807 ft 515 kts 95°
2026-05-06 12:48 23.25053 51.07654 38803 ft 514 kts 95°
2026-05-06 12:48 23.24612 51.15412 38804 ft 514 kts 95°
2026-05-06 12:49 23.24156 51.23175 38807 ft 514 kts 95°
2026-05-06 12:49 23.23692 51.30945 38807 ft 514 kts 95°
2026-05-06 12:50 23.23229 51.38687 38799 ft 513 kts 95°
2026-05-06 12:50 23.22760 51.46438 38787 ft 513 kts 96°
2026-05-06 12:51 23.22156 51.54176 38790 ft 512 kts 97°
2026-05-06 12:51 23.21472 51.61882 38791 ft 512 kts 97°
2026-05-06 12:52 23.20802 51.69546 38778 ft 513 kts 97°
2026-05-06 12:52 23.20141 51.77271 38776 ft 513 kts 97°
2026-05-06 12:53 23.19484 51.84998 38781 ft 513 kts 97°
2026-05-06 12:53 23.18822 51.92716 38771 ft 513 kts 97°
2026-05-06 12:54 23.18153 52.00443 38775 ft 513 kts 97°
2026-05-06 12:54 23.17480 52.08169 38782 ft 513 kts 97°
2026-05-06 12:55 23.16807 52.15875 38774 ft 512 kts 97°
2026-05-06 12:55 23.16128 52.23592 38782 ft 512 kts 97°
2026-05-06 12:56 23.15447 52.31296 38776 ft 512 kts 97°
2026-05-06 12:56 23.15066 52.39012 38776 ft 513 kts 88°
2026-05-06 12:57 23.15926 52.46716 38759 ft 514 kts 77°
2026-05-06 12:57 23.17717 52.54253 38778 ft 514 kts 75°
2026-05-06 12:58 23.19576 52.61717 38771 ft 514 kts 75°
2026-05-06 12:58 23.21407 52.69234 38761 ft 514 kts 76°
2026-05-06 12:59 23.23209 52.76773 38775 ft 513 kts 76°
2026-05-06 12:59 23.24983 52.84252 38769 ft 513 kts 76°
2026-05-06 13:00 23.26476 52.90564 38778 ft 514 kts 76°
2026-05-06 13:00 23.28256 52.98094 38762 ft 514 kts 76°
2026-05-06 13:01 23.30040 53.05645 38762 ft 514 kts 76°
2026-05-06 13:01 23.31821 53.13204 38763 ft 515 kts 76°
2026-05-06 13:02 23.33596 53.20751 38777 ft 514 kts 76°
2026-05-06 13:02 23.35368 53.28301 38780 ft 514 kts 76°
2026-05-06 13:03 23.37133 53.35852 38777 ft 514 kts 76°
2026-05-06 13:03 23.38891 53.43382 38761 ft 514 kts 76°
2026-05-06 13:04 23.40648 53.50930 38761 ft 514 kts 76°
2026-05-06 13:04 23.42403 53.58483 38756 ft 514 kts 76°
2026-05-06 13:05 23.44140 53.65974 38760 ft 515 kts 76°
2026-05-06 13:05 23.45665 53.72568 38759 ft 515 kts 76°
2026-05-06 13:06 23.47721 53.81485 38761 ft 515 kts 76°
2026-05-06 13:06 23.49478 53.89113 38757 ft 516 kts 76°
2026-05-06 13:07 23.51234 53.96759 38760 ft 516 kts 76°
2026-05-06 13:07 23.52972 54.04346 38772 ft 516 kts 76°
2026-05-06 13:08 23.54708 54.11947 38755 ft 517 kts 76°
2026-05-06 13:08 23.56451 54.19595 38759 ft 516 kts 76°
2026-05-06 13:09 23.58169 54.27146 38758 ft 516 kts 76°
2026-05-06 13:09 23.59896 54.34759 38752 ft 516 kts 76°
2026-05-06 13:10 23.61619 54.42375 38749 ft 516 kts 76°
2026-05-06 13:10 23.63335 54.49975 38749 ft 515 kts 76°
2026-05-06 13:11 23.65045 54.57569 38750 ft 515 kts 76°
2026-05-06 13:11 23.66753 54.65173 38752 ft 515 kts 76°
2026-05-06 13:12 23.68456 54.72774 38762 ft 515 kts 76°
2026-05-06 13:12 23.70153 54.80362 38764 ft 514 kts 76°
2026-05-06 13:13 23.71837 54.87909 38777 ft 514 kts 76°
2026-05-06 13:13 23.73528 54.95514 38766 ft 515 kts 76°
2026-05-06 13:14 23.75213 55.03107 38780 ft 514 kts 76°
2026-05-06 13:14 23.76897 55.10713 38772 ft 514 kts 77°
2026-05-06 13:15 23.78578 55.18324 38781 ft 515 kts 76°
2026-05-06 13:15 23.80256 55.25940 38778 ft 515 kts 77°
2026-05-06 13:16 23.81929 55.33555 38792 ft 515 kts 76°
2026-05-06 13:16 23.83321 55.39897 38789 ft 515 kts 76°
2026-05-06 13:16 23.84526 55.43559 38793 ft 512 kts 60°
2026-05-06 13:17 23.86595 55.46693 38792 ft 508 kts 43°
2026-05-06 13:17 23.89319 55.49138 38802 ft 504 kts 30°
2026-05-06 13:17 23.92432 55.50868 38794 ft 499 kts 14°
2026-05-06 13:18 23.99099 55.53039 38788 ft 503 kts 20°
2026-05-06 13:18 24.05085 55.56976 38614 ft 504 kts 38°
2026-05-06 13:18 24.07669 55.59531 38205 ft 498 kts 40°
2026-05-06 13:19 24.10208 55.62132 37426 ft 501 kts 40°
2026-05-06 13:19 24.12774 55.64762 36524 ft 505 kts 40°
2026-05-06 13:19 24.15361 55.67383 35616 ft 508 kts 40°
2026-05-06 13:19 24.17968 55.69996 34636 ft 507 kts 39°
2026-05-06 13:20 24.20563 55.72580 32935 ft 500 kts 39°
2026-05-06 13:20 24.23156 55.75151 30693 ft 504 kts 39°
2026-05-06 13:20 24.25775 55.77741 29025 ft 499 kts 39°
2026-05-06 13:20 24.28312 55.80260 28511 ft 488 kts 40°
2026-05-06 13:21 24.30821 55.82753 27841 ft 485 kts 40°
2026-05-06 13:21 24.33281 55.85199 27174 ft 481 kts 40°
2026-05-06 13:21 24.35754 55.87660 26497 ft 477 kts 40°
2026-05-06 13:21 24.38203 55.90097 25835 ft 474 kts 41°
2026-05-06 13:22 24.40667 55.92556 25141 ft 470 kts 41°
2026-05-06 13:22 24.43077 55.94965 24462 ft 466 kts 41°
2026-05-06 13:22 24.45436 55.97324 23734 ft 464 kts 41°
2026-05-06 13:22 24.47809 55.99698 23170 ft 459 kts 41°
2026-05-06 13:23 24.50176 56.02069 22698 ft 461 kts 41°
2026-05-06 13:23 24.52543 56.04435 22444 ft 456 kts 41°
2026-05-06 13:23 24.55028 56.06573 22173 ft 451 kts 32°
2026-05-06 13:23 24.57778 56.08206 21918 ft 447 kts 22°
2026-05-06 13:24 24.60697 56.09310 21641 ft 438 kts 12°
2026-05-06 13:24 24.63651 56.09581 20724 ft 420 kts 353°
2026-05-06 13:24 24.66421 56.08688 19471 ft 415 kts 332°
2026-05-06 13:24 24.68772 56.06876 18214 ft 409 kts 320°
2026-05-06 13:25 24.70926 56.04858 16944 ft 405 kts 320°
2026-05-06 13:25 24.73097 56.02886 15874 ft 405 kts 322°
2026-05-06 13:25 24.75292 56.01021 15222 ft 386 kts 323°
2026-05-06 13:25 24.77358 55.99361 14955 ft 351 kts 325°
2026-05-06 13:26 24.79271 55.97875 14762 ft 321 kts 325°
2026-05-06 13:26 24.81060 55.96508 14757 ft 308 kts 326°
2026-05-06 13:26 24.82811 55.95179 14377 ft 304 kts 326°
2026-05-06 13:26 24.84542 55.93865 13669 ft 301 kts 326°
2026-05-06 13:27 24.86252 55.92568 12857 ft 298 kts 325°
2026-05-06 13:27 24.87967 55.91267 12016 ft 298 kts 325°
2026-05-06 13:27 24.89664 55.89980 11223 ft 295 kts 325°
2026-05-06 13:27 24.91328 55.88716 10447 ft 292 kts 325°
2026-05-06 13:28 24.92998 55.87446 9673 ft 289 kts 326°
2026-05-06 13:28 24.94656 55.86187 8933 ft 289 kts 326°
2026-05-06 13:28 24.96332 55.84914 8491 ft 292 kts 326°
2026-05-06 13:28 24.97997 55.83648 8259 ft 287 kts 326°
2026-05-06 13:29 24.99604 55.82369 7939 ft 280 kts 318°
2026-05-06 13:29 25.00776 55.80650 7417 ft 283 kts 300°
2026-05-06 13:29 25.01732 55.78801 7078 ft 283 kts 301°
2026-05-06 13:29 25.02763 55.76913 6806 ft 279 kts 301°
2026-05-06 13:30 25.03770 55.75098 6516 ft 277 kts 302°
2026-05-06 13:30 25.04761 55.73320 5972 ft 268 kts 301°
2026-05-06 13:30 25.05733 55.71580 5551 ft 270 kts 302°
2026-05-06 13:30 25.06717 55.69820 5224 ft 273 kts 302°
2026-05-06 13:31 25.07741 55.68049 4977 ft 271 kts 302°
2026-05-06 13:31 25.08749 55.66286 4646 ft 269 kts 302°
2026-05-06 13:31 25.09700 55.64582 4295 ft 252 kts 301°
2026-05-06 13:31 25.10550 55.63047 4287 ft 216 kts 301°
2026-05-06 13:32 25.11242 55.61797 4264 ft 180 kts 301°
2026-05-06 13:32 25.11862 55.60683 4321 ft 162 kts 302°
2026-05-06 13:32 25.12442 55.59634 4145 ft 157 kts 301°
2026-05-06 13:32 25.13010 55.58610 3947 ft 157 kts 301°
2026-05-06 13:33 25.13580 55.57578 3745 ft 157 kts 301°
2026-05-06 13:33 25.14152 55.56547 3540 ft 157 kts 301°
2026-05-06 13:33 25.14724 55.55518 3331 ft 156 kts 301°
2026-05-06 13:33 25.15290 55.54497 3123 ft 155 kts 301°
2026-05-06 13:34 25.15854 55.53477 2915 ft 155 kts 301°
2026-05-06 13:34 25.16417 55.52461 2717 ft 155 kts 300°
2026-05-06 13:34 25.16975 55.51452 2503 ft 153 kts 301°
2026-05-06 13:34 25.17526 55.50456 2316 ft 150 kts 300°
2026-05-06 13:35 25.18073 55.49469 2101 ft 147 kts 300°
2026-05-06 13:35 25.18593 55.48522 1928 ft 143 kts 300°
2026-05-06 13:35 25.19104 55.47571 1795 ft 145 kts 300°
2026-05-06 13:35 25.19613 55.46609 1615 ft 145 kts 301°
2026-05-06 13:36 25.20152 55.45675 1366 ft 141 kts 303°
2026-05-06 13:36 25.20666 55.44764 1120 ft 138 kts 302°
2026-05-06 13:36 25.21165 55.43851 949 ft 142 kts 304°
2026-05-06 13:36 25.21721 55.42853 753 ft 152 kts 304°
2026-05-06 13:37 25.22270 55.41870 533 ft 146 kts 304°
2026-05-06 13:37 25.22793 55.40929 361 ft 143 kts 304°
2026-05-06 13:37 25.23314 55.39978 166 ft 144 kts 303°
2026-05-06 13:37 25.23670 55.39337 61 ft 145 kts 303°
2026-05-06 13:38 25.24292 55.38225 32 ft 113 kts 301°
2026-05-06 13:38 25.24526 55.37800 28 ft 90 kts 301°
2026-05-06 13:38 25.24771 55.37327 28 ft 26 kts 283°
2026-05-06 13:38 25.24786 55.37098 28 ft 24 kts 271°
2026-05-06 13:39 25.24817 55.36923 27 ft 24 kts 294°
2026-05-06 13:39 25.24867 55.36748 26 ft 24 kts 287°
2026-05-06 13:39 25.24897 55.36595 26 ft 18 kts 233°
2026-05-06 13:39 25.24800 55.36521 28 ft 9 kts 211°
2026-05-06 13:40 25.24772 55.36502 26 ft 1 kts 211°
2026-05-06 13:40 25.24767 55.36499 26 ft 0 kts 211°